Wind_Speed
16 16 16 17 18 19 20 20 20 19 19 19 18 18 16 14 13 13 13 12 11 10 10 9 8 7 7 8 9 10 10 11 12 12 12 12 12 12 12 12 11 11 11 11 12 13 14 13 12 11 11 11 10 10 9 9 10 10 10 10 9 9 9 10 10 10 11 11 12 13 14 15 15 15 15 16 16 17 17 18 19 20 21 21 22
16 16 16 17 18 19 21 21 20 20 20 19 18 17 15 14 14 13 13 13 12 11 11 10 9 9 9 10 10 11 12 12 13 14 15 15 14 14 14 14 14 13 12 12 12 13 14 15 15 14 12 11 11 11 11 10 11 11 11 11 11 11 11 11 11 11 11 11 12 13 15 16 17 17 18 18 18 19 19 20 21 22 23 24 25
18 18 19 19 20 20 21 20 19 19 19 18 17 15 14 14 13 13 13 12 11 11 11 10 10 9 10 10 11 12 12 13 14 15 16 16 15 15 15 15 15 15 14 13 12 13 14 15 16 16 15 13 12 11 11 11 11 12 12 12 13 13 13 14 14 14 14 13 13 13 14 16 17 18 19 20 20 21 21 22 23 24 25 26 27
18 18 19 19 19 19 18 18 17 17 17 16 15 15 14 13 12 12 11 10 10 10 10 10 9 9 10 11 11 12 12 13 14 15 15 16 16 15 14 14 14 15 15 14 13 12 13 15 17 18 17 15 13 12 12 12 12 12 13 13 14 14 14 15 15 16 16 16 16 15 15 16 18 19 20 21 22 23 24 24 25 26 26 27 28
17 18 18 18 18 17 17 17 16 16 16 15 14 14 13 12 11 10 9 9 10 10 10 10 10 10 11 12 12 12 13 13 14 14 15 15 14 14 13 14 14 14 14 14 13 13 13 14 16 17 17 16 15 14 13 13 12 13 14 14 14 14 14 15 16 17 18 19 20 19 18 18 19 21 22 23 23 25 26 26 26 27 28 28 30
17 18 18 18 18 18 18 18 17 17 16 15 14 13 12 12 11 10 10 10 10 10 10 10 11 12 12 12 13 13 13 13 14 15 15 14 13 13 13 13 14 13 13 13 13 13 14 15 16 16 16 15 16 15 15 14 13 13 14 16 16 16 16 16 17 17 18 19 21 22 22 21 21 22 24 25 25 27 28 28 28 30 31 31 32
18 18 17 17 18 18 18 17 17 16 15 14 13 12 12 12 11 11 11 11 10 10 11 11 12 13 13 13 13 13 13 13 14 15 15 14 14 13 13 13 13 14 13 13 13 13 14 15 15 14 13 14 14 15 15 14 13 13 14 15 16 17 17 18 18 18 19 20 21 23 25 25 24 24 26 27 28 30 32 32 32 33 35 34 35
19 18 18 17 18 17 16 16 15 14 13 12 11 12 12 12 12 12 12 11 11 12 12 13 13 13 12 13 13 13 13 13 13 14 14 13 13 12 12 12 12 13 13 13 13 13 12 12 12 12 12 11 12 12 13 13 13 13 14 15 16 17 18 19 19 19 20 21 22 24 26 28 28 28 30 31 31 33 35 35 35 36 38 37 38
18 17 17 17 17 16 15 13 13 13 13 12 13 13 13 13 13 13 12 12 13 13 13 13 12 11 12 13 13 12 11 12 12 12 11 11 11 10 10 10 11 11 12 12 12 12 9 8 8 9 9 9 10 10 10 10 11 12 14 15 17 18 19 19 20 20 21 22 22 24 26 27 28 30 32 33 34 35 36 37 37 38 39 39 39
16 16 16 16 16 15 13 11 11 11 12 13 14 15 15 15 15 14 13 13 13 13 12 12 11 12 12 13 11 10 10 10 10 9 9 9 9 8 8 9 9 9 9 9 9 8 6 6 6 6 7 8 9 9 10 10 11 12 14 16 17 19 20 20 20 21 22 22 22 24 25 25 26 30 31 33 35 36 36 37 37 38 39 39 39
15 15 14 14 14 13 11 10 9 9 10 11 12 14 16 16 16 16 15 13 13 13 12 12 12 13 13 12 10 9 9 9 8 7 7 7 7 6 6 6 6 5 5 5 5 5 5 5 5 5 6 7 8 10 11 12 13 14 15 17 19 21 22 22 22 23 24 24 24 26 26 25 26 29 30 32 35 36 37 37 37 37 38 37 36
14 13 13 13 13 12 11 10 10 9 9 10 11 13 14 16 17 16 15 14 14 14 13 13 12 13 14 12 10 10 9 8 7 7 7 6 5 5 5 4 4 4 4 4 4 4 4 5 5 6 7 9 10 11 13 14 16 17 18 20 22 24 25 26 26 27 28 28 28 28 28 28 28 29 30 32 35 37 37 37 37 37 37 36 35
15 15 14 13 12 12 12 11 10 10 9 10 11 12 12 13 15 16 16 16 16 15 14 14 13 13 13 12 11 10 9 8 8 8 7 7 6 6 5 4 4 3 3 3 4 4 4 6 7 9 10 12 13 15 16 17 19 21 22 23 25 26 28 28 29 30 32 32 32 31 30 31 31 30 31 34 37 37 37 37 37 37 37 36 35
18 17 15 14 13 13 12 11 10 10 11 11 12 12 12 12 14 17 18 17 16 15 15 15 14 14 13 12 11 10 10 10 10 9 8 8 7 6 5 4 4 4 4 4 4 5 6 7 8 10 12 14 15 17 19 20 22 24 25 26 28 29 30 30 31 33 35 35 35 33 32 33 33 32 33 37 38 37 38 38 38 39 39 39 38
21 18 17 15 14 13 12 12 11 10 11 12 13 13 13 14 16 17 18 18 17 17 17 17 15 14 14 12 11 11 12 11 11 10 9 9 8 7 6 5 5 5 4 5 6 7 8 9 10 12 14 16 17 19 21 23 25 27 28 29 31 33 33 32 32 35 36 36 37 36 34 35 35 35 35 38 38 39 40 41 42 42 43 43 42
22 20 18 16 15 15 14 13 12 12 12 12 12 12 13 15 17 18 19 19 19 18 17 16 15 15 14 13 12 12 13 12 11 10 10 9 8 7 7 6 6 6 6 8 9 10 12 13 13 15 16 18 20 22 24 26 28 29 30 31 33 35 34 33 34 36 37 37 37 37 36 37 38 37 37 39 40 41 43 44 45 45 45 46 44
22 20 18 17 16 16 16 15 14 14 13 12 11 12 12 13 16 19 20 20 19 19 17 17 18 17 16 14 13 13 13 12 11 11 10 9 8 8 8 8 8 8 8 10 12 13 15 16 16 17 18 20 23 25 27 29 30 31 32 33 34 34 33 33 35 37 38 38 38 38 38 39 40 40 40 42 43 45 47 47 47 48 48 48 47
21 19 17 17 17 17 18 17 16 16 16 14 13 13 12 12 13 17 20 21 20 20 20 20 20 18 16 14 14 15 14 13 12 10 10 9 9 9 10 10 9 10 11 13 14 15 17 18 20 21 22 24 26 28 29 31 31 32 33 34 34 33 31 34 37 38 38 39 39 39 39 40 42 44 45 46 47 49 51 50 50 52 53 51 49
21 20 20 19 19 19 20 20 19 18 18 18 16 15 14 13 13 14 16 19 21 21 22 22 20 18 17 15 16 15 15 14 12 10 10 10 11 12 13 13 13 14 15 17 18 19 20 22 24 25 26 27 29 30 32 33 34 34 35 37 36 32 33 37 40 39 39 40 40 41 42 43 45 47 48 49 50 52 53 53 54 57 57 55 54
23 24 25 25 24 23 22 22 21 20 21 21 21 19 17 16 15 13 14 16 20 22 23 22 20 19 18 17 17 17 16 15 13 12 12 13 14 15 17 17 17 18 20 21 22 22 24 25 27 28 30 30 31 32 34 35 37 37 38 39 38 36 37 41 42 42 42 42 42 44 45 46 48 50 51 52 53 54 55 55 57 60 62 61 60
28 28 29 28 28 26 25 23 22 22 23 24 24 22 20 18 17 16 14 15 18 21 22 22 21 20 19 19 19 19 18 18 17 16 16 16 17 19 20 19 20 21 22 22 22 23 25 27 29 30 32 33 34 34 35 37 39 41 41 41 41 41 43 46 46 46 46 46 47 47 47 47 48 50 51 52 53 54 55 56 58 61 65 66 65
31 31 31 30 29 28 26 25 24 24 25 26 26 24 22 21 20 18 17 16 17 19 21 21 21 21 21 21 21 21 21 21 20 19 19 19 21 22 21 21 22 23 22 23 24 25 27 28 30 32 33 34 35 36 38 40 42 43 42 43 44 46 48 50 51 52 52 51 50 48 47 48 50 51 52 53 54 55 57 59 61 65 68 69 67
31 31 30 30 29 28 28 27 27 27 27 28 28 27 25 23 22 21 19 17 17 18 20 20 21 21 21 21 21 22 22 22 22 21 21 22 23 23 23 23 24 25 25 25 27 28 29 30 31 33 35 36 37 39 40 41 43 44 45 45 47 49 52 55 57 58 56 53 50 49 49 50 51 52 53 55 57 58 60 62 65 69 70 68 65
30 30 30 29 29 29 29 29 29 30 30 31 30 29 28 26 24 23 22 20 19 18 19 20 20 20 21 21 22 23 23 24 24 23 24 24 25 25 25 26 27 28 28 28 29 31 32 33 33 35 37 38 39 40 40 42 44 46 47 48 50 52 55 59 61 61 57 53 52 52 52 50 50 52 54 55 56 57 58 61 64 68 68 64 61
28 28 28 28 28 29 30 30 31 32 33 33 33 32 31 29 27 25 24 23 22 21 20 21 21 21 21 21 22 24 25 25 25 25 25 26 26 27 28 29 30 31 31 31 33 35 36 37 37 38 39 40 41 42 42 44 46 47 48 50 53 55 58 62 64 63 58 55 54 56 54 50 51 53 54 54 54 54 55 59 61 63 64 62 59
26 26 26 25 26 27 28 30 31 32 33 34 34 33 33 31 29 28 26 25 24 24 23 23 22 22 22 23 24 25 26 26 26 26 27 28 28 30 31 32 33 34 34 35 36 38 39 40 41 41 42 42 43 44 45 46 47 49 50 52 55 57 60 63 66 66 62 58 58 59 58 55 55 55 55 55 56 55 56 58 60 60 60 59 58
26 25 25 24 25 25 26 27 29 30 31 32 32 33 33 33 32 30 28 27 27 27 26 26 25 25 26 26 27 28 29 28 27 28 28 30 31 33 34 34 35 37 38 39 40 41 41 42 42 43 44 45 46 47 48 49 49 50 52 54 56 58 59 61 63 65 64 62 62 62 61 59 58 58 58 60 61 59 59 60 60 59 59 58 58
26 26 26 25 25 25 25 26 27 28 29 29 30 31 32 33 33 32 31 30 30 30 30 29 28 28 29 30 31 32 32 31 31 31 32 33 35 35 36 37 38 40 41 42 43 43 43 43 44 45 46 48 49 50 51 52 52 53 54 56 57 57 57 57 59 62 64 65 65 65 64 62 61 59 59 60 61 59 59 60 60 61 61 61 61
26 26 26 26 26 26 27 27 27 28 28 28 29 30 31 32 33 33 33 33 32 33 33 33 32 32 32 33 34 34 34 35 35 35 36 37 37 38 39 40 41 42 44 45 45 46 46 46 47 48 49 50 52 53 54 55 56 57 57 57 57 57 57 57 59 61 63 65 66 66 65 63 62 60 60 60 59 57 57 58 60 62 64 65 65
26 27 26 27 27 27 27 28 28 28 29 29 29 29 30 31 32 33 33 34 34 34 34 34 34 34 35 35 36 36 37 38 38 38 39 40 40 41 42 43 44 45 46 47 47 47 48 49 50 51 52 53 54 56 57 58 59 59 59 59 59 59 59 60 61 63 65 66 65 64 64 63 62 61 61 60 58 55 56 57 59 62 65 67 68
27 27 27 28 28 28 28 29 29 29 29 29 29 30 31 31 31 32 33 34 35 35 35 35 36 36 36 37 37 38 39 39 40 40 41 42 42 43 44 46 47 47 48 48 48 48 49 51 52 53 54 56 57 58 60 60 60 61 61 60 60 61 62 63 65 67 67 65 62 61 61 61 61 61 61 59 57 56 56 55 56 59 62 65 66
29 29 30 30 30 30 30 30 30 30 30 30 31 32 32 32 32 32 33 34 35 36 36 37 37 37 38 38 39 39 40 41 41 42 43 44 45 46 47 48 48 48 48 48 49 50 52 53 54 56 57 58 59 59 60 60 61 62 63 63 63 64 64 66 67 67 64 60 58 58 58 58 59 59 58 58 59 57 54 52 53 55 59 62 64
31 31 31 32 32 32 32 32 32 31 31 32 33 33 34 34 34 34 35 36 36 37 37 38 38 38 39 40 40 41 41 42 43 44 45 46 47 47 48 49 49 49 49 49 50 52 54 55 56 57 58 59 59 59 60 61 63 64 65 65 66 66 67 68 67 63 58 56 56 56 55 57 57 57 57 58 59 57 54 54 55 59 62 64 63
33 33 33 33 33 33 33 33 33 33 33 34 34 35 35 36 36 36 37 37 38 38 39 39 39 40 40 41 42 42 42 43 44 45 46 47 48 48 49 49 49 50 51 51 53 55 56 57 57 58 58 59 60 61 62 63 65 66 67 68 69 69 69 67 62 57 54 53 54 54 55 56 57 57 57 58 58 57 56 58 60 62 63 61 56
35 35 35 35 35 35 35 35 35 35 36 36 36 37 38 38 38 38 38 38 39 39 40 40 41 41 42 43 43 43 44 44 45 46 46 47 48 49 50 50 51 52 53 54 55 56 57 57 58 59 60 61 63 64 65 66 67 68 69 70 70 70 67 61 56 53 53 53 53 54 55 56 56 57 59 60 59 58 58 59 60 60 58 52 45
38 37 37 37 37 37 38 38 38 38 39 39 40 40 41 41 41 40 40 40 40 41 41 42 43 44 44 44 45 45 45 46 46 47 48 49 50 51 51 52 53 54 55 56 57 57 57 59 60 61 62 64 66 67 67 68 69 70 70 71 69 65 59 55 53 53 54 54 54 54 55 56 56 56 58 59 59 59 58 58 58 56 54 48 40
40 40 39 39 40 40 40 40 40 41 41 42 42 43 44 45 44 43 42 42 43 43 44 45 45 46 46 46 46 47 47 48 48 49 50 51 51 52 53 53 54 55 56 57 57 58 59 61 62 64 65 67 68 69 69 70 71 71 70 68 64 58 54 53 53 54 54 54 54 53 53 54 54 53 53 54 55 54 53 52 53 52 50 46 40
42 42 42 42 42 42 42 43 43 43 44 44 45 46 47 47 46 45 44 44 44 45 46 46 47 47 47 48 48 49 49 50 51 51 51 52 53 53 54 55 55 56 57 58 58 59 61 63 64 65 67 68 69 70 70 71 72 70 68 63 58 54 52 52 53 53 53 53 53 52 51 51 50 50 50 50 50 50 49 49 50 50 46 43 42
45 44 44 44 44 44 44 45 46 46 47 47 48 48 47 47 46 45 44 44 45 46 47 47 48 48 49 49 50 50 51 51 52 52 53 53 54 54 55 55 56 57 58 58 60 61 62 64 65 67 69 70 71 70 71 71 71 68 63 58 54 52 52 52 52 53 53 53 53 52 51 50 49 49 50 50 51 52 53 54 54 52 48 46 46
48 47 47 47 47 47 47 47 48 49 49 48 48 48 47 47 47 45 43 43 45 46 47 48 49 50 50 51 51 52 52 52 53 53 54 54 55 55 56 56 57 58 59 60 61 62 63 65 67 69 70 71 71 71 71 70 68 63 58 55 53 53 52 52 51 52 52 52 53 52 51 50 50 49 50 52 53 54 56 55 53 50 48 46 44
49 50 50 49 49 49 49 49 50 51 51 50 49 49 48 48 49 47 45 45 46 48 49 50 51 51 52 52 52 53 53 54 55 55 56 56 57 57 57 58 59 60 61 62 62 63 65 67 69 71 72 72 71 71 69 67 62 57 54 54 53 53 53 52 52 52 51 52 52 52 51 50 50 50 50 51 52 53 53 52 48 43 41 40 38
50 51 51 51 51 51 51 51 51 52 52 52 51 51 50 50 50 49 48 48 49 50 51 52 52 53 53 53 54 54 55 56 56 57 57 58 58 58 59 60 61 62 63 64 65 66 67 69 71 72 72 72 70 68 65 61 56 54 53 53 53 53 53 53 52 52 51 51 51 51 50 50 49 49 49 50 49 49 49 47 43 38 35 34 33
52 52 53 53 53 53 53 53 53 53 53 53 53 53 52 51 51 51 51 51 51 52 52 53 53 53 54 54 55 56 56 57 57 58 58 59 60 60 61 62 63 64 65 66 67 68 69 71 72 72 71 70 68 64 59 56 53 52 52 53 53 54 54 54 52 51 50 50 50 50 49 48 48 47 47 47 46 45 43 42 39 35 32 30 29
55 55 55 55 55 55 55 55 55 55 55 55 55 55 54 53 53 52 52 52 52 52 53 53 54 54 55 56 57 57 58 58 59 59 60 61 61 62 63 64 64 65 66 67 68 70 71 72 71 70 69 67 64 59 55 53 52 51 51 51 52 52 52 51 50 49 48 48 48 48 47 46 45 45 44 44 43 42 40 39 37 35 32 30 29
59 59 59 59 58 58 58 57 57 57 57 57 56 56 56 55 54 54 54 54 54 54 55 56 57 57 58 59 59 59 59 59 60 60 60 61 62 63 64 65 65 66 67 68 70 70 71 70 69 68 67 65 60 55 53 52 51 50 50 50 50 49 49 48 48 47 46 46 46 46 46 45 44 43 43 42 42 41 40 38 36 34 33 31 29
61 61 60 60 60 60 60 60 59 59 58 58 58 57 57 57 56 56 57 57 57 58 58 59 60 60 60 59 59 59 59 60 60 61 61 62 62 63 64 65 66 67 68 70 70 70 69 69 67 66 65 62 57 54 53 52 50 49 49 48 48 47 47 46 46 45 45 45 45 45 44 43 42 42 41 41 41 40 39 38 37 35 32 31 29
64 64 62 61 61 61 61 61 60 59 59 59 59 58 58 58 58 59 59 60 60 60 61 61 60 60 60 59 59 60 60 61 61 62 63 63 63 64 65 66 67 68 69 69 69 69 67 67 66 65 63 60 57 55 54 53 51 50 50 49 48 47 47 46 45 45 44 44 44 44 43 42 41 41 40 40 40 39 39 38 37 35 33 31 30
58 60 61 61 62 63 62 61 60 59 59 59 59 59 59 59 60 60 61 61 61 62 61 61 61 61 61 61 61 62 62 63 64 64 65 65 65 66 66 66 67 68 69 68 68 67 67 66 65 64 62 59 58 57 56 55 54 52 51 50 50 49 47 46 45 45 44 43 42 42 41 41 40 40 39 39 38 38 38 37 36 35 33 31 29
52 53 56 57 59 60 60 60 59 58 57 57 57 58 58 59 60 61 61 61 61 61 62 62 62 62 62 62 62 63 64 65 65 66 66 66 66 66 66 66 67 68 67 66 66 66 66 66 64 63 61 59 58 58 58 57 56 54 54 53 51 50 49 48 46 45 44 43 42 41 40 40 39 39 39 37 36 36 35 34 34 33 31 29 28
44 46 49 50 52 54 55 56 56 56 56 56 57 58 59 59 60 61 61 62 62 63 63 63 63 63 63 62 62 63 64 65 65 66 66 65 64 64 65 67 67 66 65 64 64 65 65 64 63 62 60 59 58 58 59 58 57 56 55 54 52 51 50 49 47 46 44 43 41 40 39 39 38 38 37 36 35 34 33 32 32 31 30 29 28
31 34 37 40 43 46 49 50 52 53 55 57 58 59 60 60 61 61 62 62 61 62 62 62 63 63 63 64 64 65 65 65 65 65 64 63 63 63 65 66 66 65 64 64 63 63 63 62 62 61 60 59 59 59 60 59 58 56 55 54 53 51 50 49 48 47 45 43 42 40 38 37 37 36 35 35 35 34 33 32 32 31 31 31 31
Wind_Direction
207 206 203 197 192 190 189 186 184 183 181 179 182 184 183 179 179 179 182 189 195 201 209 216 225 233 240 247 253 258 261 263 269 274 278 282 288 294 298 305 312 320 327 334 342 345 348 348 343 334 323 318 318 322 327 333 339 343 347 352 356 356 356 358 359 358 356 354 353 350 348 347 347 347 347 347 345 344 344 343 343 343 343 343 344
198 194 190 186 185 186 187 187 186 184 183 184 187 187 182 178 177 177 183 192 199 208 219 226 233 240 246 251 256 260 263 264 266 270 274 277 281 287 292 296 301 306 310 316 327 333 336 339 341 339 333 323 317 317 321 327 333 337 342 346 349 349 350 352 353 352 351 350 348 346 344 341 340 340 340 339 338 338 338 337 337 338 338 338 339
198 193 188 185 185 187 187 188 188 188 187 187 187 184 180 178 178 181 190 198 204 213 222 230 238 245 250 253 256 258 260 263 266 269 273 276 279 283 288 292 295 297 299 304 313 320 325 329 332 336 335 329 320 314 314 318 325 330 334 339 341 343 345 346 346 344 341 341 342 340 337 335 333 332 332 333 332 331 332 332 331 332 333 334 334
200 197 193 191 189 188 188 187 186 185 185 186 185 183 182 182 184 190 198 205 213 221 227 232 239 246 252 255 258 259 260 262 265 269 272 276 279 283 286 288 289 291 293 297 304 310 315 319 323 328 331 328 322 315 311 314 318 323 327 330 333 336 338 339 338 337 333 331 332 332 330 328 328 327 327 327 327 327 327 328 327 327 328 330 329
200 199 197 195 191 189 187 183 180 180 182 184 185 185 186 186 189 197 204 211 220 228 234 239 242 246 250 254 258 261 264 266 267 268 269 272 276 281 283 283 283 284 287 292 299 305 309 312 316 321 323 323 319 315 313 315 319 322 322 323 326 328 329 329 330 330 328 325 324 325 324 323 322 322 322 323 323 322 322 325 325 323 325 326 326
198 201 200 198 195 191 186 182 180 182 185 187 190 190 191 192 195 200 206 214 222 228 233 237 240 244 249 254 260 263 265 267 268 267 268 268 268 269 270 274 277 279 282 287 293 300 305 309 313 316 317 316 314 313 315 318 323 325 321 320 323 325 325 324 324 326 324 321 320 321 321 321 321 318 317 318 320 319 320 324 325 323 324 326 326
195 199 200 200 197 192 187 185 186 189 193 196 197 196 197 198 201 205 210 215 221 226 229 231 233 238 245 253 261 265 268 268 267 266 266 265 262 258 255 259 267 274 279 283 288 296 303 308 312 315 315 313 312 314 318 322 327 326 320 319 322 324 324 322 324 327 325 321 320 319 320 323 324 320 317 319 321 320 321 325 326 324 325 325 324
193 195 197 198 196 192 190 191 194 197 201 203 203 205 207 209 210 212 215 219 223 226 227 227 229 234 243 251 257 263 267 268 268 267 267 266 263 259 253 253 259 267 275 281 288 295 301 307 311 314 316 315 316 318 321 325 328 326 322 321 324 325 322 321 325 328 326 325 323 320 320 323 324 321 320 321 322 321 322 325 326 323 323 324 322
186 186 187 190 192 193 194 198 202 205 208 209 213 217 219 220 220 220 221 222 225 229 230 230 232 237 244 250 256 263 267 267 268 268 267 266 264 260 258 256 255 260 267 277 286 294 302 308 310 312 318 320 322 325 327 328 329 326 323 324 327 325 321 323 326 326 325 327 325 320 321 324 321 318 319 320 319 318 320 322 323 322 322 322 320
175 174 174 181 187 191 195 201 207 210 212 216 220 223 224 224 224 225 225 226 228 231 232 234 237 241 244 248 256 266 269 268 266 262 259 258 257 255 255 254 254 256 261 268 277 286 296 304 310 314 319 321 323 328 329 328 328 325 323 325 324 321 321 323 325 323 322 323 322 318 320 323 317 312 315 316 315 315 315 316 318 319 318 319 319
170 169 171 178 182 186 192 199 205 211 215 219 223 226 227 225 224 224 226 228 230 230 230 230 234 238 242 248 256 261 262 262 257 247 242 242 244 244 245 249 254 254 254 255 261 273 284 296 305 309 313 316 321 324 324 323 324 323 321 321 319 318 318 319 319 317 315 315 315 313 315 317 311 307 310 311 308 309 310 313 315 315 314 316 318
174 175 180 183 182 185 192 200 206 211 216 221 224 227 229 227 225 224 225 228 228 227 226 226 229 235 241 246 251 250 248 247 240 231 227 224 227 231 231 236 244 247 249 252 256 268 283 298 307 312 314 317 319 320 319 319 319 317 317 316 315 314 313 313 313 312 309 309 308 308 310 310 305 304 306 304 302 305 308 310 311 310 310 312 314
182 183 188 191 191 194 200 205 209 211 216 221 226 230 231 229 226 222 221 223 225 225 225 225 226 232 237 239 239 238 235 230 225 221 216 212 213 217 220 225 234 244 254 264 272 286 300 310 317 320 318 318 320 318 316 315 313 310 310 310 309 308 307 308 309 307 306 305 305 306 306 304 303 303 300 298 300 304 306 306 306 305 306 308 310
189 188 193 198 202 206 208 211 213 217 221 225 228 230 228 225 223 221 221 223 224 224 224 225 224 226 229 229 227 226 223 218 217 215 210 205 205 208 214 222 235 246 256 268 281 294 304 310 315 314 311 311 313 310 309 308 305 303 304 304 304 303 302 304 305 303 302 302 302 303 302 300 301 300 297 297 301 303 303 303 303 302 304 305 307
193 193 195 201 210 216 219 221 223 229 232 232 232 232 228 223 220 220 221 221 220 221 222 223 223 224 225 224 220 217 215 213 214 212 207 204 201 204 210 215 229 247 263 278 285 291 297 300 301 301 300 302 302 301 300 298 296 296 298 300 300 299 299 301 301 298 298 299 300 300 298 297 298 298 297 298 300 301 301 301 300 301 302 303 304
197 198 198 203 213 220 226 231 235 238 240 238 240 239 233 227 222 219 219 217 217 218 219 220 218 217 221 223 217 214 213 213 213 214 215 213 208 209 216 222 236 256 271 280 284 288 290 290 290 291 293 295 295 294 292 291 290 291 292 293 293 294 296 298 297 295 295 296 295 296 296 296 296 297 297 297 298 299 298 298 299 301 300 299 300
198 200 200 204 211 219 226 234 239 242 242 242 249 253 246 234 227 222 218 217 217 215 215 216 214 213 219 222 215 212 213 214 216 221 227 228 224 224 229 232 242 255 266 274 278 282 285 287 288 290 291 293 292 291 290 289 288 288 289 289 289 291 295 296 293 291 291 291 291 293 295 295 295 295 295 295 296 296 296 297 299 299 297 297 298
201 203 204 208 213 216 222 229 237 244 245 244 247 255 254 245 237 229 221 217 217 216 214 214 212 214 219 219 212 212 214 215 218 227 239 247 248 248 247 248 254 264 271 275 278 281 286 290 292 292 293 292 291 291 290 289 288 288 289 288 288 292 296 293 288 286 286 286 288 290 292 292 292 292 293 294 295 295 295 297 297 295 295 295 295
209 211 214 218 220 219 221 224 230 239 245 247 247 251 253 250 248 244 229 219 217 218 217 214 213 215 218 215 211 213 216 218 221 229 245 258 265 269 270 272 276 280 281 281 284 288 291 292 292 291 290 289 288 289 289 290 290 290 289 289 290 294 293 288 285 285 284 284 286 288 289 290 290 290 291 293 295 295 295 296 295 293 293 293 291
220 221 222 223 223 222 222 223 226 230 236 244 248 250 252 251 252 253 243 226 220 221 221 216 214 216 215 212 210 212 216 220 222 228 237 246 255 261 265 269 273 276 278 281 285 288 290 290 289 288 287 285 285 286 287 289 290 290 290 291 293 293 289 285 285 285 285 286 286 286 287 289 289 290 292 293 295 296 295 294 293 292 291 290 288
223 224 225 225 225 225 224 223 224 226 229 236 244 249 251 252 252 252 249 236 227 225 225 220 216 215 214 212 212 213 216 219 222 226 232 239 245 251 255 260 265 267 269 273 276 278 279 280 281 281 281 282 283 284 285 286 286 287 289 292 293 292 289 288 288 287 285 285 284 284 287 290 290 292 294 295 295 295 293 291 290 290 289 288 287
221 224 225 225 225 225 224 223 223 225 227 231 238 245 250 252 251 250 249 243 234 230 228 225 221 218 216 216 216 217 220 224 226 230 236 242 248 253 257 260 261 262 264 267 269 270 271 272 273 274 275 277 279 280 281 281 283 285 289 293 294 294 292 291 290 287 285 285 285 287 291 293 293 294 294 293 293 292 291 292 291 290 290 290 290
220 222 223 224 224 224 225 224 223 224 227 231 235 240 245 248 250 250 249 245 239 234 232 231 229 227 225 224 224 225 227 230 232 235 239 244 249 253 257 259 261 263 266 268 270 271 271 271 271 270 271 274 276 277 279 282 286 291 294 295 295 294 294 293 292 289 288 291 294 295 295 294 294 294 293 292 292 292 292 293 293 292 293 296 298
219 220 221 222 223 224 225 225 224 224 226 229 232 235 239 242 246 248 247 246 244 241 238 238 238 237 235 234 233 233 234 235 236 238 240 243 247 251 255 258 261 264 267 269 271 273 274 275 273 272 272 275 278 281 285 290 294 297 297 296 295 295 295 295 293 292 294 298 300 299 297 298 298 297 295 294 293 292 292 293 293 295 297 300 301
219 219 220 220 222 223 224 225 226 226 226 229 231 232 234 237 240 243 244 244 245 246 246 246 246 245 244 241 239 238 238 238 239 241 243 245 248 252 256 260 263 266 270 272 274 275 276 277 276 276 278 280 284 288 292 296 298 299 298 298 297 297 298 298 296 296 300 302 301 300 300 302 301 299 297 296 294 294 295 296 297 298 299 300 300
220 221 221 221 222 223 224 225 226 227 228 230 231 231 233 235 237 239 240 241 243 244 246 249 250 250 249 247 246 245 244 244 244 245 247 250 252 255 259 262 266 270 272 273 274 276 277 279 281 282 284 286 289 292 294 296 296 297 297 297 297 298 301 301 301 301 304 306 305 304 305 307 305 303 302 301 299 300 300 299 299 298 298 299 298
222 224 225 225 226 226 227 227 228 230 231 232 233 233 234 235 237 238 239 240 241 242 243 245 246 248 248 248 249 251 252 252 251 252 253 256 258 260 262 265 267 271 273 274 276 277 279 282 284 286 287 289 290 292 294 295 295 295 296 297 297 299 301 301 301 303 307 308 308 307 308 308 307 305 305 303 303 304 304 302 301 299 298 298 297
223 226 227 229 230 231 231 232 232 233 235 236 237 237 237 237 237 238 240 242 243 243 244 245 245 247 248 249 251 253 255 256 256 256 257 260 262 264 266 268 270 273 276 278 279 280 282 283 285 287 288 289 291 293 294 294 294 295 295 296 297 298 300 300 302 304 306 307 307 306 306 305 304 305 305 304 303 304 305 303 302 301 300 299 297
225 227 229 230 231 232 232 233 234 236 238 239 240 241 241 241 240 240 242 244 245 245 246 247 247 248 249 250 252 253 255 256 257 259 260 263 265 267 269 271 274 276 278 279 280 281 283 285 287 288 289 291 292 293 294 294 295 295 296 297 298 299 300 301 302 303 304 304 304 304 303 303 304 305 305 305 304 304 304 303 302 301 300 298 297
228 229 230 232 233 234 235 236 237 238 239 241 243 244 244 244 244 244 244 245 247 248 249 250 251 252 252 253 254 255 256 257 259 261 263 265 268 270 271 273 274 275 277 278 280 283 285 287 289 290 291 292 293 294 294 295 296 298 298 299 300 301 302 302 303 303 304 304 303 303 303 303 304 305 306 305 304 303 302 301 299 298 297 296 296
231 232 232 234 236 237 239 240 241 241 241 242 243 244 245 245 245 245 246 246 247 249 250 251 252 253 254 255 256 256 257 258 260 262 264 266 268 269 271 272 273 274 276 278 282 284 287 288 290 291 291 292 293 294 296 297 298 299 299 300 300 302 302 303 304 305 305 303 303 302 302 302 303 305 305 304 303 302 301 300 298 297 296 295 295
236 236 236 237 239 241 242 244 245 245 245 244 244 245 246 246 246 246 246 247 248 248 249 251 252 253 254 255 256 256 257 258 260 261 263 265 267 269 270 271 273 275 278 280 283 285 286 287 288 290 291 292 293 295 296 297 298 299 299 300 300 301 303 304 305 305 304 302 301 300 300 300 302 303 304 304 305 305 305 305 304 303 301 299 295
240 240 241 241 241 243 245 247 248 248 248 248 248 248 249 249 249 248 248 248 249 250 252 253 254 255 256 257 258 258 259 260 261 262 264 266 267 269 270 272 274 276 279 281 283 284 284 286 287 289 290 292 293 294 295 296 297 298 299 300 301 302 304 305 305 304 302 301 301 300 300 301 303 304 304 306 309 310 312 313 314 312 310 307 302
243 244 245 245 246 247 248 248 249 250 250 250 251 252 253 252 252 251 251 251 252 254 255 256 257 258 259 259 260 261 262 263 263 264 265 267 268 270 272 274 276 278 279 280 281 282 284 285 287 288 290 291 292 293 294 296 297 298 300 302 303 304 305 305 304 303 302 302 302 301 301 302 304 304 306 310 313 314 316 318 318 316 315 313 308
246 246 246 247 248 249 249 250 250 250 251 251 252 252 253 253 253 253 254 254 255 256 257 258 259 259 259 259 260 261 262 263 264 265 267 268 270 272 273 275 276 278 280 281 282 283 284 286 287 288 290 291 292 293 295 297 299 300 302 303 304 305 305 304 303 303 304 304 304 303 302 304 304 305 308 312 315 316 318 319 318 318 321 321 314
248 247 247 248 248 249 249 250 250 251 252 252 252 253 253 254 254 254 254 256 257 258 259 259 260 260 260 260 261 262 263 264 266 267 269 270 272 273 275 276 278 279 280 281 282 283 285 286 288 289 290 291 293 295 297 298 300 302 303 304 304 304 304 303 304 305 305 305 305 304 304 304 304 306 308 311 313 315 316 317 317 321 329 331 322
249 249 249 249 249 250 250 250 251 251 252 253 253 254 255 255 255 255 256 256 257 258 259 260 260 261 261 262 263 264 265 266 267 268 269 271 272 274 275 277 278 279 280 282 283 284 286 287 288 290 291 293 294 296 298 300 301 302 303 303 303 303 303 303 304 306 306 307 307 305 304 303 303 305 307 307 308 310 312 315 321 327 333 335 330
250 250 251 251 251 251 251 252 252 253 254 254 255 255 254 254 254 254 255 256 258 259 260 260 261 261 262 263 264 265 266 266 268 269 270 272 274 275 277 278 279 280 281 282 284 285 287 288 289 291 292 293 295 297 299 300 301 302 302 301 301 301 302 303 304 305 306 307 308 307 306 305 305 306 307 306 306 307 310 317 324 329 330 330 331
251 251 251 252 252 252 252 253 253 254 254 255 257 257 257 257 256 253 252 255 258 259 260 261 261 262 263 263 264 265 266 268 269 271 273 274 275 276 277 278 279 280 282 283 285 286 287 289 290 291 292 294 296 298 299 300 300 300 300 298 298 299 301 302 303 304 306 307 308 308 309 310 310 311 311 311 312 313 316 319 323 326 329 330 333
252 252 253 252 252 252 252 253 254 255 255 255 257 258 258 258 257 256 255 257 259 260 260 261 261 262 263 264 265 267 268 270 271 273 274 275 275 276 277 278 280 281 282 284 286 287 288 289 290 291 293 295 297 298 299 299 299 298 297 296 297 299 300 301 302 303 305 306 307 307 309 311 312 313 314 314 316 317 319 321 324 326 329 332 335
251 252 253 253 253 253 253 254 255 256 257 257 258 258 257 257 258 260 261 261 261 261 261 261 262 263 264 265 267 269 270 271 272 273 274 275 275 276 278 279 280 282 283 285 286 287 288 289 290 291 293 295 297 298 298 298 297 295 294 295 297 298 299 300 301 303 304 305 306 306 308 309 311 312 313 315 317 318 319 322 325 328 330 332 335
251 252 252 253 254 254 254 255 255 256 258 259 259 260 260 260 261 262 262 262 261 262 262 263 264 265 266 268 269 270 271 272 273 273 274 275 276 277 278 280 281 282 284 285 286 286 287 288 290 292 293 295 296 297 296 295 294 293 294 296 297 298 299 300 301 302 304 305 306 306 307 308 309 311 313 314 316 318 319 321 324 326 327 329 330
252 252 253 253 254 254 254 254 255 255 257 258 259 259 260 261 261 261 261 261 262 263 264 265 266 267 268 269 270 270 271 271 272 273 274 275 276 278 279 280 282 283 284 285 286 287 288 289 290 292 293 295 296 295 293 292 292 293 294 295 296 298 299 300 301 303 304 305 306 306 306 306 307 309 311 312 314 316 317 318 319 320 321 321 321
255 254 254 253 253 253 253 253 254 254 255 256 257 257 257 258 258 259 260 261 261 262 263 264 265 266 266 267 267 268 269 270 272 273 275 276 277 279 280 281 283 283 284 285 286 287 288 289 291 292 293 294 294 292 290 291 292 293 294 295 296 297 299 300 302 303 304 305 305 305 304 304 305 307 308 310 311 312 313 314 314 315 315 314 313
255 254 254 253 252 252 252 252 252 253 253 254 254 255 256 256 257 257 258 259 260 261 261 262 263 264 265 266 268 269 270 272 273 274 276 277 278 280 281 282 283 284 285 286 287 288 288 289 290 291 292 293 291 288 288 291 293 294 295 296 297 298 300 301 302 303 304 304 304 304 303 303 304 306 307 308 309 309 309 309 310 310 310 310 309
253 252 252 252 252 251 251 250 251 251 252 252 253 254 255 256 256 257 258 259 259 260 261 262 264 265 267 269 270 271 272 273 274 275 276 278 279 280 281 282 284 285 285 286 286 287 288 289 290 291 291 290 286 284 286 290 293 295 296 296 297 299 301 302 302 303 303 303 303 302 302 303 304 305 306 306 305 305 306 306 306 306 305 305 305
250 249 248 249 249 249 249 249 250 250 251 252 253 254 255 257 258 259 260 260 261 262 264 265 267 268 269 270 271 272 272 273 274 275 276 278 279 280 282 283 284 284 284 285 286 287 287 288 289 289 289 287 283 282 285 288 291 294 295 296 296 298 300 301 302 302 302 302 301 300 301 302 302 302 302 302 302 302 303 303 303 304 303 303 304
248 246 244 244 244 246 247 247 248 249 250 251 252 254 255 257 258 259 261 262 263 264 265 266 267 268 269 269 270 271 272 273 274 275 277 278 279 281 282 282 283 283 284 285 286 287 288 289 289 288 287 284 282 282 284 286 289 291 293 294 295 296 297 299 300 300 300 299 299 299 299 299 299 299 298 298 298 299 299 300 300 301 301 303 304
244 243 242 241 240 241 243 244 245 246 248 250 252 253 254 255 256 257 258 260 261 261 262 263 264 265 267 268 269 271 272 273 274 276 277 278 279 279 280 280 281 283 284 286 286 287 289 290 289 287 284 282 281 282 283 284 286 289 291 292 294 296 296 297 298 298 297 297 296 296 296 295 295 295 294 294 293 294 294 295 295 296 297 299 301
241 241 240 241 240 240 241 242 244 246 247 249 250 252 253 254 255 256 257 258 259 260 262 263 264 265 266 267 268 270 271 272 273 274 275 276 276 277 277 278 281 282 283 284 285 287 289 290 290 287 284 282 282 282 282 283 285 287 289 291 293 294 295 295 294 294 293 293 293 292 291 290 290 290 289 289 288 288 287 287 287 289 291 293 296
241 243 243 244 242 241 241 242 244 245 247 248 249 251 253 254 255 257 258 260 261 262 263 264 265 266 267 267 268 269 270 271 272 272 273 273 274 275 276 278 280 281 281 281 283 285 287 289 290 288 284 282 281 281 281 282 284 285 287 288 290 292 292 292 292 291 290 289 289 287 286 285 284 284 284 283 283 282 281 280 281 282 283 286 289
Height
5914 5916 5918 5920 5922 5923 5924 5924 5925 5926 5928 5929 5930 5931 5933 5935 5936 5938 5940 5941 5942 5943 5944 5945 5945 5946 5946 5946 5947 5947 5948 5948 5948 5948 5949 5949 5949 5949 5949 5949 5949 5949 5949 5949 5949 5948 5948 5948 5947 5947 5947 5946 5946 5947 5947 5947 5947 5946 5946 5946 5945 5945 5944 5944 5943 5943 5942 5941 5941 5940 5939 5938 5938 5937 5936 5935 5934 5933 5932 5931 5930 5929 5927 5926 5924
5913 5915 5917 5919 5920 5922 5922 5923 5924 5925 5926 5927 5928 5930 5931 5933 5935 5936 5938 5940 5941 5942 5942 5943 5944 5944 5945 5945 5946 5946 5947 5947 5947 5947 5947 5948 5948 5948 5948 5948 5948 5948 5948 5948 5948 5948 5947 5947 5947 5946 5946 5945 5945 5945 5945 5945 5945 5945 5945 5944 5944 5943 5943 5942 5942 5942 5941 5941 5940 5939 5938 5937 5936 5935 5935 5934 5933 5932 5931 5930 5929 5927 5926 5924 5922
5912 5913 5915 5917 5918 5920 5921 5923 5924 5925 5926 5927 5928 5929 5930 5932 5933 5935 5937 5938 5939 5940 5941 5942 5942 5943 5943 5944 5944 5945 5945 5946 5946 5946 5946 5946 5947 5947 5947 5947 5947 5946 5947 5947 5947 5947 5947 5946 5946 5945 5945 5945 5944 5944 5944 5944 5944 5944 5943 5943 5942 5942 5941 5941 5940 5940 5940 5939 5939 5938 5937 5936 5935 5934 5933 5932 5931 5930 5929 5928 5927 5925 5924 5922 5920
5911 5913 5914 5916 5917 5919 5921 5922 5923 5924 5925 5926 5927 5928 5929 5931 5932 5933 5935 5936 5938 5939 5939 5940 5941 5941 5942 5942 5943 5943 5944 5944 5945 5945 5945 5945 5945 5946 5946 5946 5946 5945 5945 5945 5946 5946 5946 5946 5945 5945 5944 5943 5943 5943 5943 5943 5943 5942 5942 5941 5941 5940 5940 5939 5939 5938 5937 5937 5937 5937 5936 5935 5934 5932 5931 5930 5929 5928 5927 5926 5925 5923 5922 5920 5919
5909 5911 5913 5915 5917 5918 5919 5920 5921 5923 5924 5925 5926 5927 5929 5930 5931 5932 5933 5935 5936 5937 5937 5938 5939 5939 5940 5940 5940 5941 5942 5942 5943 5943 5943 5944 5944 5944 5944 5944 5944 5944 5944 5944 5944 5945 5945 5945 5944 5944 5943 5942 5942 5941 5941 5941 5941 5941 5940 5940 5940 5939 5939 5938 5937 5936 5936 5935 5934 5934 5934 5933 5932 5931 5929 5928 5927 5926 5924 5924 5922 5921 5920 5918 5917
5907 5910 5912 5914 5915 5916 5918 5919 5920 5921 5922 5924 5925 5926 5927 5928 5929 5930 5931 5932 5933 5935 5935 5936 5937 5937 5937 5938 5938 5939 5940 5940 5940 5941 5941 5942 5942 5942 5942 5942 5942 5942 5943 5943 5943 5944 5944 5944 5943 5943 5942 5941 5940 5940 5940 5940 5940 5939 5939 5938 5937 5937 5937 5936 5936 5935 5934 5933 5932 5931 5931 5931 5930 5929 5927 5926 5925 5924 5922 5921 5920 5918 5917 5916 5914
5906 5908 5910 5912 5914 5915 5916 5918 5919 5920 5921 5922 5923 5925 5925 5926 5927 5928 5929 5930 5931 5932 5933 5934 5935 5935 5936 5936 5936 5937 5937 5938 5938 5938 5938 5939 5940 5940 5940 5940 5940 5941 5941 5941 5942 5942 5942 5942 5941 5941 5940 5940 5939 5938 5938 5938 5938 5938 5937 5936 5936 5935 5934 5934 5933 5933 5932 5932 5931 5929 5928 5927 5927 5926 5924 5923 5922 5921 5919 5918 5917 5915 5913 5913 5912
5904 5906 5908 5911 5912 5914 5915 5916 5918 5919 5920 5921 5922 5923 5924 5924 5925 5926 5927 5928 5929 5930 5931 5932 5932 5933 5934 5934 5935 5935 5936 5936 5936 5936 5936 5937 5937 5937 5938 5939 5939 5939 5939 5940 5940 5941 5941 5940 5939 5939 5938 5938 5938 5937 5937 5937 5936 5936 5935 5935 5934 5933 5933 5932 5932 5931 5930 5930 5929 5927 5926 5924 5923 5922 5921 5920 5919 5917 5915 5914 5913 5912 5910 5909 5908
5902 5904 5906 5908 5910 5912 5914 5915 5916 5917 5918 5919 5920 5920 5921 5922 5923 5924 5925 5926 5927 5928 5929 5930 5931 5932 5932 5932 5933 5933 5934 5934 5934 5934 5934 5935 5935 5936 5936 5937 5938 5938 5938 5938 5938 5939 5939 5938 5938 5937 5937 5936 5936 5936 5936 5935 5935 5935 5934 5933 5933 5932 5931 5930 5930 5929 5928 5928 5927 5925 5924 5923 5921 5919 5918 5917 5915 5914 5913 5911 5910 5909 5907 5906 5905
5901 5903 5905 5906 5908 5910 5912 5914 5915 5915 5916 5917 5917 5918 5919 5920 5921 5922 5923 5924 5925 5926 5927 5928 5929 5930 5930 5930 5931 5932 5932 5932 5932 5932 5932 5933 5933 5934 5934 5935 5936 5936 5937 5937 5937 5937 5937 5937 5936 5936 5935 5935 5935 5934 5934 5934 5934 5933 5933 5932 5931 5930 5929 5929 5928 5927 5926 5926 5925 5923 5922 5922 5920 5917 5916 5915 5913 5911 5910 5908 5907 5906 5904 5903 5902
5899 5901 5903 5905 5906 5908 5910 5912 5913 5914 5914 5915 5915 5916 5916 5917 5918 5919 5920 5922 5923 5924 5925 5926 5927 5927 5928 5929 5929 5930 5930 5930 5930 5930 5931 5931 5931 5932 5932 5933 5934 5934 5935 5935 5935 5935 5935 5935 5935 5935 5934 5934 5934 5933 5933 5932 5932 5932 5931 5930 5929 5928 5927 5927 5926 5925 5924 5923 5923 5921 5920 5920 5918 5916 5915 5913 5910 5908 5907 5906 5905 5903 5902 5901 5901
5898 5900 5902 5903 5905 5907 5908 5910 5911 5912 5912 5913 5913 5913 5914 5915 5916 5917 5919 5920 5920 5922 5923 5924 5925 5925 5926 5927 5927 5928 5928 5928 5928 5929 5929 5929 5930 5930 5931 5931 5932 5933 5933 5933 5934 5934 5934 5934 5934 5934 5933 5933 5933 5932 5932 5931 5930 5930 5929 5929 5927 5926 5925 5924 5924 5923 5921 5921 5920 5919 5918 5917 5916 5914 5912 5910 5907 5905 5904 5903 5901 5900 5898 5898 5897
5897 5898 5900 5902 5904 5905 5906 5908 5908 5909 5910 5910 5911 5911 5912 5913 5914 5915 5916 5917 5918 5919 5920 5922 5923 5923 5924 5925 5925 5926 5926 5926 5927 5927 5927 5928 5928 5929 5929 5930 5930 5931 5931 5932 5932 5932 5933 5933 5933 5932 5932 5932 5931 5931 5930 5929 5928 5928 5927 5926 5925 5924 5923 5922 5922 5920 5918 5917 5916 5917 5916 5914 5913 5912 5910 5906 5904 5903 5901 5900 5898 5896 5895 5894 5894
5895 5897 5899 5901 5902 5904 5905 5905 5906 5907 5907 5908 5908 5909 5910 5911 5912 5913 5914 5915 5916 5917 5918 5919 5920 5921 5922 5923 5923 5924 5924 5925 5925 5925 5926 5926 5927 5927 5928 5929 5929 5929 5930 5930 5931 5931 5931 5931 5931 5931 5930 5930 5930 5929 5928 5927 5926 5925 5924 5924 5923 5921 5920 5920 5919 5916 5914 5913 5912 5913 5912 5910 5909 5909 5906 5903 5901 5900 5898 5896 5894 5892 5890 5890 5890
5894 5895 5897 5899 5900 5901 5902 5903 5904 5904 5905 5905 5906 5906 5907 5908 5909 5910 5911 5912 5913 5914 5915 5916 5918 5919 5920 5921 5921 5922 5922 5923 5923 5923 5924 5925 5925 5926 5927 5927 5928 5928 5928 5929 5929 5929 5929 5929 5930 5929 5929 5928 5928 5927 5926 5925 5923 5923 5922 5920 5919 5917 5916 5917 5915 5912 5910 5909 5908 5908 5907 5906 5905 5904 5902 5899 5897 5896 5894 5891 5889 5887 5886 5885 5885
5891 5893 5895 5897 5898 5899 5900 5901 5901 5902 5902 5903 5904 5904 5904 5905 5906 5907 5908 5909 5910 5911 5913 5914 5915 5916 5917 5918 5919 5919 5920 5920 5921 5921 5922 5922 5923 5924 5925 5925 5926 5926 5927 5927 5927 5927 5927 5927 5927 5927 5927 5926 5925 5924 5923 5922 5921 5920 5919 5918 5916 5914 5913 5913 5910 5907 5906 5905 5904 5903 5902 5901 5900 5899 5897 5895 5893 5892 5889 5887 5885 5883 5881 5879 5879
5888 5890 5892 5894 5896 5897 5898 5898 5899 5899 5900 5901 5901 5902 5902 5902 5903 5904 5905 5907 5908 5909 5910 5911 5912 5913 5914 5915 5916 5917 5917 5918 5918 5918 5919 5919 5921 5922 5922 5923 5924 5924 5925 5925 5925 5925 5925 5925 5925 5925 5925 5924 5923 5922 5920 5919 5918 5917 5915 5914 5912 5911 5911 5910 5906 5904 5902 5901 5900 5899 5899 5897 5895 5893 5892 5890 5889 5886 5883 5882 5880 5877 5874 5873 5873
5885 5887 5889 5891 5893 5894 5895 5896 5896 5896 5897 5898 5899 5899 5900 5900 5900 5901 5902 5904 5905 5906 5907 5908 5909 5911 5912 5913 5914 5914 5914 5915 5915 5915 5916 5916 5917 5918 5919 5920 5921 5922 5922 5922 5922 5923 5923 5922 5922 5922 5922 5921 5920 5918 5917 5915 5914 5913 5911 5909 5908 5908 5908 5905 5902 5900 5899 5897 5897 5896 5895 5894 5891 5888 5887 5885 5884 5881 5877 5876 5874 5869 5867 5867 5867
5882 5884 5886 5887 5889 5890 5892 5893 5894 5894 5895 5896 5897 5897 5898 5898 5898 5899 5900 5901 5902 5903 5904 5905 5907 5908 5910 5910 5911 5911 5911 5912 5912 5913 5913 5913 5914 5915 5915 5916 5918 5918 5919 5919 5919 5919 5919 5919 5918 5917 5917 5917 5915 5914 5913 5910 5909 5908 5906 5904 5903 5904 5903 5899 5896 5895 5894 5894 5894 5892 5891 5890 5887 5883 5882 5880 5878 5875 5872 5870 5866 5861 5859 5859 5859
5879 5880 5881 5883 5884 5886 5888 5889 5891 5892 5893 5893 5893 5894 5895 5896 5896 5897 5897 5898 5900 5900 5902 5903 5905 5906 5907 5908 5908 5908 5909 5909 5910 5911 5911 5912 5912 5913 5913 5914 5915 5915 5915 5915 5915 5915 5915 5915 5914 5913 5913 5912 5911 5910 5908 5906 5904 5903 5901 5898 5898 5898 5896 5891 5890 5890 5890 5889 5889 5887 5886 5885 5882 5879 5877 5875 5873 5870 5866 5863 5859 5853 5850 5849 5848
5873 5875 5877 5879 5880 5882 5884 5886 5888 5889 5890 5890 5890 5891 5892 5893 5894 5895 5895 5896 5897 5898 5899 5901 5902 5903 5904 5905 5905 5906 5906 5907 5908 5908 5909 5910 5910 5910 5911 5912 5913 5913 5913 5913 5913 5913 5912 5912 5911 5910 5909 5908 5907 5906 5904 5902 5900 5898 5896 5894 5892 5891 5888 5885 5884 5884 5882 5882 5881 5880 5881 5880 5877 5874 5873 5870 5867 5864 5859 5855 5851 5845 5840 5838 5839
5869 5871 5873 5875 5877 5879 5881 5882 5884 5886 5887 5887 5888 5888 5889 5890 5891 5892 5893 5894 5895 5896 5897 5898 5899 5900 5901 5902 5902 5903 5903 5904 5905 5906 5906 5907 5907 5907 5908 5909 5909 5909 5910 5910 5910 5909 5909 5908 5908 5906 5905 5904 5903 5901 5900 5898 5895 5894 5892 5890 5887 5884 5880 5877 5875 5873 5872 5872 5873 5875 5877 5875 5872 5869 5866 5863 5860 5856 5851 5847 5844 5837 5832 5833 5835
5866 5868 5870 5872 5874 5875 5877 5879 5880 5882 5883 5884 5885 5885 5886 5887 5888 5889 5890 5891 5892 5894 5895 5896 5897 5898 5898 5899 5900 5900 5900 5901 5902 5903 5903 5903 5904 5904 5905 5905 5905 5905 5906 5906 5906 5905 5905 5904 5903 5902 5900 5899 5898 5897 5895 5893 5890 5889 5887 5885 5882 5878 5874 5869 5865 5862 5863 5867 5871 5872 5871 5869 5865 5862 5858 5855 5852 5849 5845 5841 5836 5831 5829 5831 5832
5862 5864 5866 5868 5869 5871 5873 5875 5876 5878 5879 5880 5881 5882 5883 5884 5885 5886 5888 5889 5890 5891 5892 5893 5894 5895 5896 5896 5897 5897 5897 5898 5899 5900 5900 5900 5901 5901 5901 5902 5901 5901 5902 5902 5901 5900 5900 5899 5897 5896 5895 5894 5893 5891 5890 5888 5886 5884 5882 5879 5876 5873 5868 5861 5855 5853 5857 5862 5864 5862 5861 5860 5858 5854 5851 5848 5845 5842 5838 5834 5829 5825 5823 5825 5824
5859 5860 5862 5864 5865 5867 5868 5870 5872 5873 5875 5876 5877 5878 5879 5880 5881 5883 5884 5886 5887 5888 5889 5890 5891 5892 5893 5893 5894 5894 5894 5895 5896 5897 5897 5897 5898 5898 5898 5898 5897 5897 5897 5898 5896 5895 5894 5893 5892 5891 5890 5888 5887 5886 5885 5884 5881 5879 5877 5874 5870 5867 5862 5855 5847 5846 5851 5855 5853 5850 5851 5852 5850 5846 5843 5839 5835 5834 5831 5826 5822 5818 5815 5813 5812
5855 5857 5858 5860 5862 5863 5864 5866 5867 5869 5870 5871 5872 5874 5876 5877 5878 5879 5880 5882 5884 5885 5886 5887 5887 5888 5889 5890 5890 5891 5891 5892 5893 5894 5894 5894 5894 5894 5894 5893 5893 5892 5892 5892 5891 5890 5889 5888 5887 5886 5884 5883 5882 5881 5880 5879 5876 5874 5871 5869 5865 5861 5858 5851 5842 5838 5841 5844 5842 5838 5839 5841 5839 5835 5832 5828 5825 5825 5824 5818 5813 5810 5807 5804 5802
5852 5853 5855 5857 5858 5860 5861 5862 5863 5864 5865 5867 5868 5870 5872 5873 5874 5875 5877 5878 5880 5881 5882 5883 5884 5885 5886 5887 5887 5887 5887 5889 5890 5891 5891 5890 5890 5890 5889 5889 5888 5887 5887 5886 5885 5884 5884 5883 5881 5880 5879 5878 5876 5875 5874 5872 5871 5868 5866 5863 5860 5856 5854 5849 5842 5834 5832 5833 5831 5829 5829 5831 5829 5827 5824 5819 5815 5816 5814 5809 5804 5800 5798 5796 5793
5849 5850 5852 5853 5855 5856 5858 5859 5860 5861 5862 5863 5865 5866 5868 5869 5870 5872 5873 5874 5875 5876 5878 5879 5880 5881 5882 5882 5882 5882 5883 5885 5886 5886 5886 5886 5885 5885 5884 5884 5883 5882 5882 5881 5880 5879 5878 5877 5876 5874 5873 5871 5870 5869 5867 5865 5863 5862 5860 5857 5854 5851 5849 5845 5841 5834 5828 5825 5823 5821 5820 5820 5819 5819 5817 5812 5809 5808 5807 5801 5795 5791 5788 5786 5782
5846 5847 5849 5850 5851 5853 5854 5855 5856 5858 5859 5860 5862 5863 5864 5865 5867 5868 5869 5870 5871 5872 5873 5874 5876 5877 5877 5877 5878 5878 5879 5880 5880 5881 5881 5881 5880 5880 5879 5879 5878 5877 5876 5875 5874 5873 5872 5871 5869 5868 5867 5865 5863 5862 5860 5858 5856 5854 5852 5850 5847 5845 5843 5839 5836 5831 5826 5821 5817 5814 5811 5810 5809 5809 5807 5804 5803 5802 5800 5795 5789 5784 5779 5774 5772
5842 5844 5845 5846 5848 5849 5850 5852 5853 5854 5856 5857 5858 5859 5860 5861 5862 5864 5865 5866 5866 5867 5869 5870 5871 5872 5872 5873 5873 5874 5874 5875 5875 5875 5876 5875 5875 5875 5874 5874 5873 5872 5871 5870 5868 5867 5866 5864 5863 5862 5860 5858 5856 5854 5852 5850 5848 5846 5844 5842 5840 5837 5835 5832 5829 5825 5822 5817 5812 5807 5804 5801 5800 5799 5797 5795 5795 5794 5793 5789 5784 5778 5772 5766 5763
5839 5840 5841 5843 5844 5845 5847 5848 5850 5851 5852 5853 5854 5855 5856 5857 5858 5859 5860 5861 5862 5863 5864 5865 5866 5867 5867 5868 5868 5869 5869 5870 5870 5870 5870 5870 5870 5870 5869 5869 5868 5866 5865 5864 5862 5861 5860 5858 5857 5855 5853 5852 5850 5848 5845 5843 5841 5838 5836 5835 5833 5831 5828 5825 5822 5818 5814 5811 5806 5802 5798 5795 5792 5790 5788 5786 5785 5785 5784 5782 5777 5772 5766 5761 5756
5834 5836 5837 5839 5840 5842 5843 5844 5846 5847 5849 5850 5850 5851 5852 5852 5853 5855 5856 5856 5857 5858 5859 5860 5861 5862 5862 5863 5863 5864 5864 5864 5865 5865 5865 5864 5864 5864 5863 5863 5861 5860 5859 5858 5857 5855 5854 5852 5851 5849 5847 5845 5843 5841 5838 5836 5833 5831 5829 5828 5827 5824 5822 5819 5815 5811 5808 5804 5800 5797 5794 5790 5787 5784 5781 5777 5775 5774 5773 5771 5768 5763 5758 5752 5747
5830 5832 5833 5834 5836 5838 5839 5840 5842 5844 5845 5846 5846 5846 5847 5848 5849 5850 5851 5851 5852 5853 5854 5855 5856 5857 5857 5857 5858 5858 5858 5858 5859 5859 5858 5858 5858 5857 5857 5856 5855 5854 5853 5852 5851 5849 5848 5846 5845 5843 5841 5839 5836 5834 5832 5829 5827 5824 5822 5820 5819 5817 5815 5812 5809 5805 5801 5798 5794 5791 5787 5784 5781 5777 5774 5771 5767 5764 5761 5759 5756 5751 5745 5739 5734
5826 5827 5829 5830 5832 5833 5835 5836 5838 5839 5840 5841 5841 5842 5843 5843 5844 5845 5846 5847 5848 5848 5849 5850 5851 5851 5852 5852 5852 5852 5852 5852 5853 5852 5852 5852 5852 5851 5850 5850 5849 5848 5847 5846 5845 5843 5842 5840 5838 5836 5834 5832 5830 5827 5825 5823 5820 5818 5816 5814 5811 5809 5807 5804 5801 5798 5795 5792 5788 5785 5781 5778 5774 5770 5767 5764 5760 5756 5752 5749 5745 5740 5734 5728 5723
5821 5822 5824 5826 5827 5829 5830 5831 5832 5834 5835 5836 5836 5837 5838 5838 5839 5841 5841 5842 5843 5843 5844 5844 5845 5845 5846 5846 5846 5846 5846 5846 5846 5846 5846 5846 5845 5844 5844 5843 5842 5842 5841 5839 5838 5836 5835 5833 5831 5829 5827 5825 5823 5821 5819 5816 5814 5812 5810 5807 5804 5801 5799 5796 5793 5791 5788 5785 5782 5779 5775 5772 5768 5764 5760 5756 5753 5750 5746 5742 5738 5733 5727 5721 5717
5815 5817 5819 5821 5822 5823 5824 5826 5827 5828 5829 5830 5831 5831 5832 5833 5834 5835 5836 5837 5837 5838 5838 5839 5839 5839 5839 5840 5840 5840 5840 5840 5840 5839 5839 5839 5838 5838 5837 5836 5836 5835 5833 5832 5831 5829 5827 5826 5824 5822 5820 5818 5816 5814 5812 5810 5807 5805 5802 5799 5796 5794 5792 5789 5787 5785 5782 5779 5776 5773 5769 5766 5763 5760 5756 5751 5748 5745 5741 5738 5734 5728 5721 5716 5713
5810 5812 5814 5816 5817 5818 5819 5820 5822 5822 5823 5824 5825 5825 5825 5826 5827 5829 5830 5831 5831 5832 5832 5832 5832 5832 5833 5833 5833 5833 5833 5833 5833 5833 5832 5832 5831 5831 5830 5830 5829 5827 5826 5825 5823 5822 5820 5818 5817 5815 5813 5811 5809 5807 5805 5802 5800 5797 5795 5792 5789 5787 5785 5783 5780 5778 5776 5773 5770 5767 5764 5761 5758 5756 5754 5750 5746 5743 5740 5735 5729 5722 5716 5712 5710
5804 5807 5809 5810 5812 5813 5814 5815 5815 5816 5817 5817 5818 5818 5818 5818 5819 5821 5822 5823 5824 5825 5825 5825 5826 5826 5826 5827 5827 5827 5826 5826 5826 5826 5825 5825 5825 5824 5824 5823 5821 5820 5819 5817 5816 5814 5813 5811 5809 5808 5805 5803 5801 5800 5797 5795 5793 5790 5787 5785 5782 5780 5778 5776 5774 5771 5769 5767 5764 5761 5758 5756 5753 5751 5749 5747 5744 5741 5737 5732 5726 5719 5714 5711 5707
5798 5801 5803 5804 5805 5807 5808 5809 5809 5810 5811 5811 5811 5812 5813 5814 5814 5814 5814 5816 5817 5818 5818 5819 5819 5819 5820 5820 5820 5820 5820 5820 5819 5819 5819 5818 5818 5817 5816 5815 5814 5813 5811 5810 5808 5807 5805 5803 5802 5800 5797 5795 5794 5792 5790 5788 5785 5783 5781 5778 5776 5774 5772 5770 5767 5765 5763 5761 5758 5755 5752 5749 5746 5744 5742 5739 5737 5734 5729 5725 5721 5716 5712 5708 5702
5793 5795 5796 5797 5799 5800 5802 5802 5802 5802 5804 5805 5805 5806 5808 5809 5810 5809 5808 5808 5810 5811 5811 5812 5812 5812 5813 5813 5813 5813 5813 5813 5813 5812 5812 5811 5810 5809 5808 5807 5806 5805 5804 5802 5801 5799 5797 5795 5794 5792 5790 5788 5787 5785 5783 5780 5778 5776 5774 5772 5770 5768 5766 5763 5761 5759 5756 5754 5752 5749 5746 5743 5740 5737 5734 5732 5729 5726 5722 5718 5715 5712 5708 5704 5699
5787 5788 5789 5791 5792 5793 5794 5795 5796 5796 5797 5798 5799 5800 5801 5802 5803 5803 5802 5802 5803 5804 5804 5805 5805 5805 5806 5806 5807 5807 5807 5806 5805 5805 5804 5803 5802 5801 5801 5800 5798 5797 5796 5794 5793 5791 5789 5787 5786 5784 5782 5781 5779 5778 5775 5773 5771 5769 5768 5766 5764 5762 5759 5757 5755 5753 5750 5748 5746 5744 5741 5738 5735 5732 5729 5726 5723 5720 5717 5713 5710 5707 5704 5701 5698
5780 5782 5783 5784 5786 5786 5787 5788 5789 5790 5790 5791 5792 5792 5793 5794 5795 5795 5796 5796 5797 5797 5797 5798 5798 5799 5800 5800 5800 5800 5799 5798 5798 5797 5796 5795 5794 5793 5793 5792 5791 5789 5788 5787 5785 5784 5782 5780 5778 5777 5776 5774 5772 5770 5768 5766 5764 5763 5761 5760 5758 5755 5753 5751 5749 5746 5744 5742 5740 5738 5735 5733 5730 5727 5725 5721 5718 5715 5713 5710 5707 5704 5702 5700 5698
5773 5774 5776 5777 5778 5779 5780 5781 5782 5783 5783 5784 5784 5785 5786 5787 5787 5788 5789 5789 5790 5791 5791 5791 5792 5792 5793 5793 5792 5792 5791 5790 5790 5789 5788 5788 5787 5786 5785 5784 5783 5782 5780 5779 5777 5776 5774 5773 5771 5770 5769 5767 5765 5763 5761 5759 5758 5757 5755 5753 5751 5749 5746 5744 5742 5740 5738 5736 5734 5733 5731 5728 5725 5723 5721 5718 5715 5712 5710 5707 5705 5703 5702 5700 5699
5765 5766 5767 5769 5770 5771 5772 5773 5774 5775 5776 5777 5777 5778 5778 5779 5780 5781 5782 5783 5783 5784 5784 5784 5784 5784 5784 5784 5783 5783 5783 5783 5782 5781 5781 5780 5779 5777 5777 5776 5775 5774 5773 5771 5770 5768 5767 5765 5764 5763 5761 5760 5758 5756 5755 5753 5751 5750 5749 5747 5744 5742 5740 5738 5736 5734 5732 5731 5729 5727 5726 5724 5721 5719 5717 5715 5713 5710 5708 5705 5703 5702 5700 5699 5698
5755 5757 5758 5759 5761 5762 5763 5764 5765 5767 5768 5769 5769 5770 5771 5772 5773 5773 5774 5775 5775 5776 5776 5776 5776 5776 5776 5775 5775 5775 5776 5776 5775 5774 5773 5773 5771 5769 5769 5768 5767 5766 5765 5763 5762 5761 5759 5758 5756 5755 5754 5752 5751 5749 5748 5747 5745 5744 5742 5740 5738 5736 5734 5732 5731 5729 5727 5725 5724 5722 5721 5719 5717 5715 5713 5711 5709 5707 5706 5704 5702 5700 5698 5697 5695
5746 5746 5748 5749 5751 5753 5754 5755 5756 5758 5759 5760 5761 5762 5763 5764 5765 5765 5766 5766 5767 5767 5767 5767 5768 5768 5769 5769 5768 5768 5768 5767 5767 5766 5765 5765 5763 5761 5760 5760 5759 5758 5756 5755 5753 5753 5752 5750 5749 5747 5746 5745 5743 5742 5741 5740 5739 5737 5736 5734 5732 5730 5729 5727 5725 5724 5722 5720 5719 5717 5716 5714 5712 5710 5708 5706 5705 5703 5702 5700 5699 5698 5696 5695 5693
5735 5736 5737 5739 5740 5742 5744 5746 5748 5749 5751 5752 5753 5755 5755 5756 5757 5757 5757 5758 5758 5759 5759 5760 5760 5761 5761 5761 5760 5760 5759 5759 5758 5758 5757 5757 5756 5755 5753 5752 5751 5750 5748 5747 5746 5745 5744 5743 5741 5740 5739 5737 5736 5735 5734 5734 5732 5731 5729 5727 5726 5724 5723 5721 5720 5719 5717 5715 5714 5712 5711 5709 5707 5705 5703 5702 5700 5699 5697 5696 5695 5693 5692 5691 5690
5723 5724 5725 5727 5729 5731 5734 5737 5739 5740 5742 5744 5745 5747 5748 5749 5749 5749 5750 5750 5751 5751 5751 5752 5752 5752 5752 5752 5752 5751 5751 5750 5750 5750 5749 5749 5748 5747 5746 5744 5743 5742 5741 5739 5738 5737 5736 5735 5734 5732 5731 5730 5729 5728 5727 5727 5725 5724 5722 5721 5719 5718 5716 5715 5714 5713 5711 5710 5708 5707 5706 5704 5702 5701 5699 5697 5696 5695 5693 5692 5691 5689 5688 5687 5685
5713 5713 5715 5717 5720 5723 5725 5728 5730 5732 5734 5736 5737 5739 5740 5741 5741 5742 5742 5742 5742 5743 5743 5743 5744 5744 5744 5744 5744 5743 5743 5742 5742 5741 5741 5740 5739 5738 5737 5736 5735 5734 5733 5732 5730 5728 5727 5727 5726 5724 5723 5722 5722 5721 5720 5719 5718 5717 5715 5713 5712 5711 5709 5708 5707 5706 5705 5704 5703 5701 5700 5699 5698 5696 5695 5693 5692 5690 5689 5688 5686 5685 5684 5683 5682
5706 5706 5707 5710 5713 5716 5719 5721 5724 5726 5728 5729 5730 5731 5732 5733 5733 5734 5734 5734 5734 5734 5735 5735 5736 5737 5737 5737 5737 5736 5736 5735 5734 5733 5732 5732 5731 5730 5729 5728 5728 5727 5726 5725 5723 5721 5719 5718 5717 5717 5716 5715 5714 5713 5712 5711 5710 5709 5707 5706 5705 5703 5702 5701 5700 5699 5698 5697 5696 5695 5694 5693 5692 5691 5690 5689 5688 5686 5685 5683 5682 5681 5680 5679 5678
5701 5701 5703 5705 5708 5711 5713 5716 5718 5720 5721 5722 5723 5724 5724 5725 5725 5726 5726 5726 5727 5727 5727 5727 5728 5728 5729 5729 5729 5728 5728 5727 5726 5725 5725 5724 5723 5722 5721 5720 5720 5719 5718 5717 5716 5714 5712 5711 5709 5709 5708 5707 5706 5705 5704 5703 5702 5701 5700 5698 5697 5696 5695 5694 5693 5692 5691 5691 5690 5689 5688 5687 5686 5685 5684 5683 5682 5681 5680 5679 5678 5678 5677 5676 5675